Погода в Заборовке

Россия / Самарская область     53°13′46″N   48°14′04″E
темп.,
°C
ветер,
м/с
пор.,
м/с
влажн.,
%
обл.,
%
осадки,
мм/ч
давл.,
гПа
погр.,
м
27 сентября, пн
пн2701:00+10св4894100 3.9 1003354
04:00+9ссв51089100 7.6 1004365
07:00+9ссв61289100 0.7 1005393
10:00+11ссв7982100 0.8 1006564
13:00+11ссв7981100 0.1 1008751
16:00+10ссв798294 0.3 1009649
19:00+9ссв71284100 0.0 1012480
22:00+9св71267100 0.0 1014530
28 сентября, вт
вт2801:00+7св6970100 0.0 1017615
04:00+4св6994100 0.1 1019669
07:00+4св61074100 0.1 10211148
10:00+6св7106433 0.1 10221006
13:00+8св795570 0.0 10231348
16:00+9св79475 0.0 10241511
19:00+6ссв51058100 0.0 1026364
22:00+4ссв510665 0.0 1027344
29 сентября, ср
ср2901:00+3ссв51170100 0.0 1028327
04:00+3с4973100 0.0 1028242
07:00+3с4975100 0.0 1030284
10:00+6св69585 0.0 10301087
13:00+9св67466 0.0 10301535
16:00+9св564425 0.0 10301544
19:00+6ссв335814 0.0 103155
22:00+4ссв37685 0.0 1032140
30 сентября, чт
чт3001:00+3с22715 0.0 103226
04:00+3с32720 0.0 103330
07:00+2ссз33775 0.0 103432
10:00+7с23585 0.0 1034443
13:00+10с33465 0.0 10331461
16:00+11с344483 0.0 10321635
19:00+8ссз3654100 0.0 1033274
22:00+6сз227085 0.0 103329
1 октября, пт
пт101:00+7зсз266699 0.0 1033224
04:00+7з3669100 0.0 1033200
07:00+7зсз486987 0.0 1032288
10:00+9сз4770100 0.0 1032399
13:00+11сз4567100 0.0 1032664
16:00+14ссз3554100 0.0 10311540
19:00+11сз236961 0.0 103164
22:00+11ссз236448 0.0 103159